STARLINK-32279, 61003

Orbit data source: Space-Track

STARLINK-32279, 61003 is a payload satellite owned by SpaceX/Seattle (US) in LEO that was launched on Thu, 05 Sep 2024 UTC via an FALCON 9 launch vehicle from the Air Force Eastern Test Range (AFETR). Payloads include a variety of satellites, spacecraft, and rockets equipped with specific instruments for various scientific and technological missions. These include communications satellites like Starlink; space stations such as the ISS; scientific satellites like the Hubble; Earth observation satellites from companies like Planet Labs, Umbra, and HawkEye 360; GPS; miniature CubeSats for education and research; and military/defense satellites.

Loading next visibility...
STARLINK-32279 details
Identifier
61003, 2024-158P
Orbit
LEO
Last TLE update15 hours ago
Origin
Flag of USSpaceX/Seattle (US)
ManufacturerSpaceX/Seattle
MissionOperational spacecraft
Bus & MotorSTARLINK V2M, Unknown motor
Mass730 kg wet, ~700 kg dry
Launch date (UTC)
2024-09-05 (4 months ago)
Launch vehicle
FALCON 9
Launch site
Air Force Eastern Test Range (AFETR)
Object type
Payload
Rocket body
Debris
Shape & HBRUnknown
Radar Cross SectionLarge (>1 m²)

Expand to show TLE details & history

TLE from 15 hours ago
0 STARLINK-32279
1 61003U 24158P   24355.90541620  .00000416  00000-0  20388-4 0  9992
2 61003  53.1632 327.7387 0001347 107.3376 252.7776 15.39626160 17699
Epoch: 2024-12-20T21:43Z
Definitive object data (Epoch: 2024-12-20T21:43:47.959Z)
Latitude-0.00006°
Longitude-88.17539°
Altitude448.39 km
Speed7.644 km/s
True Right ascension21h 50m 57s
True Declination0° 00' 00"
Sunlit
Object was in daylight at TLE epoch
Visualization TLE readout
Latitude-36.65881°
Longitude-124.86569°
Altitude459.856 km
Speed7.636 km/s
Apparent Right ascension21h 36m 46s
Apparent Declination-43° 50' 26"
Sunlit
Object is in daylight
Visualization observer readout
Local Sidereal Time12:07:59
Azimuth110.532° ESE
Elevation-61.829°
Doppler factor1
Orbital elements
Apogee altitude448.39 km
Perigee altitude446.551 km
Semi-major axis6,825.608 km
Eccentricity0.0001347
Inclination53.1632°
RAAN327.7387°
Arg. of periapsis107.3376°
True anomaly252.76286°
Mean anomaly252.7776°
Eccentric anomaly252.77023°
Mean motion3.84885 °/min
BSTAR0.000020388
Orbital period93.53 mins
Loading maneuver chart data...
Loading historical data...
Loading historical data...
Loading historical data...
Loading historical data...
Loading historical data...
Loading historical data...
Loading historical data...

STARLINK-32279 Visibility forecast

Observer location: undefined°, undefined

Span
Click to sort rows by Start time (UTC) header in descending order
Start Az.
Max El. time (UTC)
Max El. Az.
Max El.
End time (UTC)
End Az.
5 mins2024-12-22 00:23:05.403Z195.92° SSW2024-12-22 00:25:05.403Z148.341° SSE31.21°2024-12-22 00:28:05.403Z68.324° E
4 mins2024-12-22 02:01:05.403Z287.533° WNW2024-12-22 02:03:05.403Z341.069° N23.898°2024-12-22 02:05:05.403Z23.519° NE
4 mins2024-12-22 06:56:05.403Z341.459° N2024-12-22 06:58:05.403Z44.581° NE28.851°2024-12-22 07:00:05.403Z91.505° ESE
4 mins2024-12-22 08:33:05.403Z275.152° WNW2024-12-22 08:35:05.403Z225.196° WSW24.202°2024-12-22 08:37:05.403Z179.046° S
|